Time,TemperatureF,DewpointF,PressureIn,WindDirection,WindDirectionDegrees,WindSpeedMPH,WindSpeedGustMPH,Humidity,HourlyPrecipIn,Conditions,Clouds,dailyrainin,SoftwareType,DateUTC
2013-02-25 00:00:00,31.3,27.9,29.97,NW,315,0.0,0.9,87,0.00,,,0.00,WUHU216HW,2013-02-25 05:00:00,
2013-02-25 00:05:00,31.3,27.9,29.97,NW,315,0.0,0.0,87,0.00,,,0.00,WUHU216HW,2013-02-25 05:05:00,
2013-02-25 00:10:00,31.3,27.9,29.97,NW,315,0.0,0.0,87,0.00,,,0.00,WUHU216HW,2013-02-25 05:10:00,
2013-02-25 00:15:00,31.3,28.3,29.97,NW,315,0.0,0.0,88,0.00,,,0.00,WUHU216HW,2013-02-25 05:15:00,
2013-02-25 00:20:00,31.3,28.5,29.97,NW,315,0.0,0.0,89,0.00,,,0.00,WUHU216HW,2013-02-25 05:20:00,
2013-02-25 00:25:00,31.5,28.7,29.97,NW,315,0.0,0.0,89,0.00,,,0.00,WUHU216HW,2013-02-25 05:25:00,
2013-02-25 00:30:00,31.5,28.5,29.98,NW,315,0.0,0.0,88,0.00,,,0.00,WUHU216HW,2013-02-25 05:30:00,
2013-02-25 00:35:00,31.3,27.9,29.98,NW,315,0.0,0.0,87,0.00,,,0.00,WUHU216HW,2013-02-25 05:35:00,
2013-02-25 00:40:00,31.3,27.9,29.98,NW,315,0.0,0.0,87,0.00,,,0.00,WUHU216HW,2013-02-25 05:40:00,
2013-02-25 00:45:00,31.3,27.9,29.98,NW,315,0.0,0.0,87,0.00,,,0.00,WUHU216HW,2013-02-25 05:45:00,
2013-02-25 00:50:00,31.3,27.9,29.98,NW,315,0.0,0.0,87,0.00,,,0.00,WUHU216HW,2013-02-25 05:50:00,
2013-02-25 00:55:00,31.3,27.6,29.98,NW,315,1.1,1.1,86,0.00,,,0.00,WUHU216HW,2013-02-25 05:55:00,
2013-02-25 01:00:00,31.3,27.9,29.98,NW,315,0.4,1.1,87,0.00,,,0.00,WUHU216HW,2013-02-25 06:00:00,
2013-02-25 01:05:00,31.3,27.9,29.98,NW,315,0.4,1.1,87,0.00,,,0.00,WUHU216HW,2013-02-25 06:05:00,
2013-02-25 01:10:00,31.1,27.7,29.98,NW,315,0.4,0.7,87,0.00,,,0.00,WUHU216HW,2013-02-25 06:10:00,
2013-02-25 01:15:00,31.1,27.7,29.98,NW,315,0.0,0.7,87,0.00,,,0.00,WUHU216HW,2013-02-25 06:15:00,
2013-02-25 01:20:00,31.1,27.7,29.99,NW,315,0.0,0.2,87,0.00,,,0.00,WUHU216HW,2013-02-25 06:20:00,
2013-02-25 01:25:00,31.1,27.7,29.99,NW,315,0.0,0.0,87,0.00,,,0.00,WUHU216HW,2013-02-25 06:25:00,
2013-02-25 01:30:00,31.1,28.4,29.99,NW,315,0.0,0.0,89,0.00,,,0.00,WUHU216HW,2013-02-25 06:30:00,
2013-02-25 01:35:00,31.3,28.5,30.00,NW,315,0.0,0.0,89,0.00,,,0.00,WUHU216HW,2013-02-25 06:35:00,
2013-02-25 01:40:00,31.3,29.5,30.00,NW,315,0.0,0.0,93,0.00,,,0.00,WUHU216HW,2013-02-25 06:40:00,
2013-02-25 01:45:00,31.3,28.3,30.00,NW,315,0.0,0.0,88,0.00,,,0.00,WUHU216HW,2013-02-25 06:45:00,
2013-02-25 01:50:00,31.1,27.7,30.00,NW,315,0.9,0.9,87,0.00,,,0.00,WUHU216HW,2013-02-25 06:50:00,
2013-02-25 01:55:00,31.0,27.5,30.00,NW,315,0.0,0.9,87,0.00,,,0.00,WUHU216HW,2013-02-25 06:55:00,
2013-02-25 02:00:00,31.0,27.5,30.00,NW,315,0.0,0.7,87,0.00,,,0.00,WUHU216HW,2013-02-25 07:00:00,
2013-02-25 02:05:00,30.8,27.4,30.00,NW,315,0.0,0.0,87,0.00,,,0.00,WUHU216HW,2013-02-25 07:05:00,
2013-02-25 02:10:00,30.8,27.4,30.00,NW,315,0.0,0.0,87,0.00,,,0.00,WUHU216HW,2013-02-25 07:10:00,
2013-02-25 02:15:00,31.0,27.5,30.00,NW,315,0.0,0.0,87,0.00,,,0.00,WUHU216HW,2013-02-25 07:15:00,
2013-02-25 02:20:00,30.8,27.4,30.00,NW,315,0.0,0.0,87,0.00,,,0.00,WUHU216HW,2013-02-25 07:20:00,
2013-02-25 02:25:00,30.8,27.4,30.00,NW,315,0.0,0.0,87,0.00,,,0.00,WUHU216HW,2013-02-25 07:25:00,
2013-02-25 02:30:00,30.8,27.4,30.00,NW,315,0.0,0.0,87,0.00,,,0.00,WUHU216HW,2013-02-25 07:30:00,
2013-02-25 02:35:00,30.8,27.4,30.00,NW,315,0.0,0.0,87,0.00,,,0.00,WUHU216HW,2013-02-25 07:35:00,
2013-02-25 02:56:00,30.8,28.8,30.01,NW,315,0.0,0.0,92,0.00,,,0.00,WUHU216HW,2013-02-25 07:56:00,
2013-02-25 03:01:00,30.8,28.0,30.01,NW,315,0.0,0.0,89,0.00,,,0.00,WUHU216HW,2013-02-25 08:01:00,
2013-02-25 03:06:00,30.8,27.7,30.01,NW,315,0.0,0.0,88,0.00,,,0.00,WUHU216HW,2013-02-25 08:06:00,
2013-02-25 03:11:00,30.6,27.6,30.02,NW,315,0.0,0.0,88,0.00,,,0.00,WUHU216HW,2013-02-25 08:11:00,
2013-02-25 03:16:00,30.6,27.6,30.02,NW,315,0.0,0.0,88,0.00,,,0.00,WUHU216HW,2013-02-25 08:16:00,
2013-02-25 03:21:00,30.6,27.6,30.02,NW,315,0.0,0.0,88,0.00,,,0.00,WUHU216HW,2013-02-25 08:21:00,
2013-02-25 03:26:00,30.6,27.6,30.02,NW,315,0.0,0.0,88,0.00,,,0.00,WUHU216HW,2013-02-25 08:26:00,
2013-02-25 03:31:00,30.6,27.6,30.02,NW,315,0.0,0.0,88,0.00,,,0.00,WUHU216HW,2013-02-25 08:31:00,
2013-02-25 03:36:00,30.6,27.6,30.02,NW,315,0.0,0.0,88,0.00,,,0.00,WUHU216HW,2013-02-25 08:36:00,
2013-02-25 03:41:00,30.6,27.6,30.02,NW,315,0.0,0.0,88,0.00,,,0.00,WUHU216HW,2013-02-25 08:41:00,
2013-02-25 03:46:00,30.6,27.6,30.02,NW,315,0.0,0.0,88,0.00,,,0.00,WUHU216HW,2013-02-25 08:46:00,
2013-02-25 03:51:00,30.6,27.6,30.02,NW,315,0.0,0.0,88,0.00,,,0.00,WUHU216HW,2013-02-25 08:51:00,
2013-02-25 03:56:00,30.6,27.6,30.03,NW,315,0.0,0.0,88,0.00,,,0.00,WUHU216HW,2013-02-25 08:56:00,
2013-02-25 04:01:00,30.8,28.5,30.03,NW,315,0.0,0.0,91,0.00,,,0.00,WUHU216HW,2013-02-25 09:01:00,
2013-02-25 04:06:00,30.8,28.8,30.03,NW,315,0.0,0.0,92,0.00,,,0.00,WUHU216HW,2013-02-25 09:06:00,
2013-02-25 04:11:00,31.0,29.2,30.03,NW,315,0.0,0.0,93,0.00,,,0.00,WUHU216HW,2013-02-25 09:11:00,
2013-02-25 04:16:00,31.0,28.2,30.03,NW,315,0.0,0.0,89,0.00,,,0.00,WUHU216HW,2013-02-25 09:16:00,
2013-02-25 04:21:00,31.0,28.2,30.03,NW,315,0.0,0.0,89,0.00,,,0.00,WUHU216HW,2013-02-25 09:21:00,
2013-02-25 04:26:00,30.8,27.7,30.03,NW,315,0.0,0.0,88,0.00,,,0.00,WUHU216HW,2013-02-25 09:26:00,
2013-02-25 04:31:00,30.8,27.7,30.03,NW,315,0.4,0.4,88,0.00,,,0.00,WUHU216HW,2013-02-25 09:31:00,
2013-02-25 04:36:00,30.6,27.6,30.03,NW,315,0.7,0.7,88,0.00,,,0.00,WUHU216HW,2013-02-25 09:36:00,
2013-02-25 04:41:00,30.6,27.6,30.03,NW,315,1.1,1.1,88,0.00,,,0.00,WUHU216HW,2013-02-25 09:41:00,
2013-02-25 04:46:00,30.6,27.6,30.03,NW,315,0.7,1.3,88,0.00,,,0.00,WUHU216HW,2013-02-25 09:46:00,
2013-02-25 04:51:00,30.4,27.4,30.03,NW,315,0.9,1.3,88,0.00,,,0.00,WUHU216HW,2013-02-25 09:51:00,
2013-02-25 04:56:00,30.2,27.2,30.04,NW,315,1.1,1.3,88,0.00,,,0.00,WUHU216HW,2013-02-25 09:56:00,
2013-02-25 05:01:00,30.2,26.8,30.04,NW,315,0.2,1.3,87,0.00,,,0.00,WUHU216HW,2013-02-25 10:01:00,
2013-02-25 05:06:00,30.2,26.8,30.04,NW,315,0.0,0.7,87,0.00,,,0.00,WUHU216HW,2013-02-25 10:06:00,
2013-02-25 05:11:00,30.1,26.6,30.04,NW,315,0.0,0.0,87,0.00,,,0.00,WUHU216HW,2013-02-25 10:11:00,
2013-02-25 05:16:00,30.2,27.5,30.04,NW,315,0.0,0.0,89,0.00,,,0.00,WUHU216HW,2013-02-25 10:16:00,
2013-02-25 05:21:00,30.4,28.9,30.04,NW,315,0.0,0.0,94,0.00,,,0.00,WUHU216HW,2013-02-25 10:21:00,
2013-02-25 05:26:00,30.6,29.6,30.04,NW,315,0.0,0.0,96,0.00,,,0.00,WUHU216HW,2013-02-25 10:26:00,
2013-02-25 05:31:00,30.6,28.4,30.04,NW,315,0.0,0.0,91,0.00,,,0.00,WUHU216HW,2013-02-25 10:31:00,
2013-02-25 05:36:00,30.6,27.8,30.05,NW,315,0.4,0.4,89,0.00,,,0.00,WUHU216HW,2013-02-25 10:36:00,
2013-02-25 05:41:00,30.4,27.6,30.05,NW,315,0.4,0.4,89,0.00,,,0.00,WUHU216HW,2013-02-25 10:41:00,
2013-02-25 05:46:00,30.4,27.6,30.05,NW,315,0.0,0.7,89,0.00,,,0.00,WUHU216HW,2013-02-25 10:46:00,
2013-02-25 05:51:00,30.4,27.6,30.05,NW,315,0.0,0.7,89,0.00,,,0.00,WUHU216HW,2013-02-25 10:51:00,
2013-02-25 05:56:00,30.4,27.6,30.05,NW,315,0.0,0.0,89,0.00,,,0.00,WUHU216HW,2013-02-25 10:56:00,
2013-02-25 06:01:00,30.2,27.5,30.05,NW,315,0.4,0.7,89,0.00,,,0.00,WUHU216HW,2013-02-25 11:01:00,
2013-02-25 06:06:00,30.4,27.6,30.06,NW,315,0.7,0.7,89,0.00,,,0.00,WUHU216HW,2013-02-25 11:06:00,
2013-02-25 06:11:00,30.2,27.5,30.06,NW,315,1.1,1.6,89,0.00,,,0.00,WUHU216HW,2013-02-25 11:11:00,
2013-02-25 06:16:00,30.2,27.5,30.06,NW,315,0.2,1.6,89,0.00,,,0.00,WUHU216HW,2013-02-25 11:16:00,
2013-02-25 06:21:00,30.2,27.5,30.06,NW,315,0.0,1.3,89,0.00,,,0.00,WUHU216HW,2013-02-25 11:21:00,
2013-02-25 06:26:00,30.4,27.6,30.07,NW,315,0.4,0.7,89,0.00,,,0.00,WUHU216HW,2013-02-25 11:26:00,
2013-02-25 06:31:00,30.4,27.9,30.07,NW,315,1.3,1.3,90,0.00,,,0.00,WUHU216HW,2013-02-25 11:31:00,
2013-02-25 06:36:00,30.6,28.8,30.07,NW,315,0.0,1.3,93,0.00,,,0.00,WUHU216HW,2013-02-25 11:36:00,
2013-02-25 06:41:00,30.6,29.9,30.07,NW,315,0.0,0.0,97,0.00,,,0.00,WUHU216HW,2013-02-25 11:41:00,
2013-02-25 06:46:00,30.8,29.5,30.07,NW,315,0.0,0.0,95,0.00,,,0.00,WUHU216HW,2013-02-25 11:46:00,
2013-02-25 06:51:00,30.8,28.0,30.07,NW,315,1.1,1.1,89,0.00,,,0.00,WUHU216HW,2013-02-25 11:51:00,
2013-02-25 06:56:00,30.6,27.8,30.08,NW,315,0.0,1.3,89,0.00,,,0.00,WUHU216HW,2013-02-25 11:56:00,
2013-02-25 07:01:00,30.8,28.0,30.08,NW,315,0.0,1.3,89,0.00,,,0.00,WUHU216HW,2013-02-25 12:01:00,
2013-02-25 07:06:00,30.8,28.0,30.08,NW,315,1.1,1.1,89,0.00,,,0.00,WUHU216HW,2013-02-25 12:06:00,
2013-02-25 07:11:00,30.6,27.8,30.08,NW,315,1.8,1.8,89,0.00,,,0.00,WUHU216HW,2013-02-25 12:11:00,
2013-02-25 07:16:00,30.8,28.0,30.08,NW,315,1.1,1.8,89,0.00,,,0.00,WUHU216HW,2013-02-25 12:16:00,
2013-02-25 07:21:00,30.8,28.0,30.08,NW,315,1.8,1.8,89,0.00,,,0.00,WUHU216HW,2013-02-25 12:21:00,
2013-02-25 07:26:00,31.0,28.2,30.09,NW,315,1.8,1.8,89,0.00,,,0.00,WUHU216HW,2013-02-25 12:26:00,
2013-02-25 07:31:00,31.0,28.2,30.09,NW,315,1.1,1.8,89,0.00,,,0.00,WUHU216HW,2013-02-25 12:31:00,
2013-02-25 07:36:00,31.3,28.5,30.09,NW,315,0.9,1.6,89,0.00,,,0.00,WUHU216HW,2013-02-25 12:36:00,
2013-02-25 07:41:00,31.3,28.5,30.09,NW,315,2.0,2.0,89,0.00,,,0.00,WUHU216HW,2013-02-25 12:41:00,
2013-02-25 07:46:00,31.3,28.5,30.09,NW,315,1.1,2.0,89,0.00,,,0.00,WUHU216HW,2013-02-25 12:46:00,
2013-02-25 07:51:00,31.7,29.9,30.09,NW,315,0.7,1.8,93,0.00,,,0.00,WUHU216HW,2013-02-25 12:51:00,
2013-02-25 07:57:00,31.9,31.2,30.09,NW,315,0.4,1.1,97,0.00,,,0.00,WUHU216HW,2013-02-25 12:57:00,
2013-02-25 08:02:00,32.2,30.4,30.10,NW,315,0.0,0.4,93,0.00,,,0.00,WUHU216HW,2013-02-25 13:02:00,
2013-02-25 08:07:00,32.2,29.4,30.10,NW,315,0.0,0.9,89,0.00,,,0.00,WUHU216HW,2013-02-25 13:07:00,
2013-02-25 08:12:00,32.4,29.5,30.10,NW,315,0.0,0.9,89,0.00,,,0.00,WUHU216HW,2013-02-25 13:12:00,
2013-02-25 08:17:00,32.6,29.4,30.10,NW,315,1.1,1.1,88,0.00,,,0.00,WUHU216HW,2013-02-25 13:17:00,
2013-02-25 08:22:00,32.4,29.0,30.10,WNW,293,0.7,1.1,87,0.00,,,0.00,WUHU216HW,2013-02-25 13:22:00,
2013-02-25 08:27:00,32.4,29.0,30.10,West,270,1.1,1.1,87,0.00,,,0.00,WUHU216HW,2013-02-25 13:27:00,
2013-02-25 08:32:00,32.2,28.8,30.10,West,270,1.3,1.6,87,0.00,,,0.00,WUHU216HW,2013-02-25 13:32:00,
2013-02-25 08:37:00,32.2,28.8,30.11,West,270,0.7,1.6,87,0.00,,,0.00,WUHU216HW,2013-02-25 13:37:00,
2013-02-25 08:42:00,32.2,28.8,30.11,West,270,0.4,1.1,87,0.00,,,0.00,WUHU216HW,2013-02-25 13:42:00,
2013-02-25 08:47:00,32.6,29.2,30.11,West,270,0.0,0.4,87,0.00,,,0.00,WUHU216HW,2013-02-25 13:47:00,
2013-02-25 08:52:00,32.8,29.4,30.11,West,270,0.0,0.2,87,0.00,,,0.00,WUHU216HW,2013-02-25 13:52:00,
2013-02-25 08:57:00,32.9,29.2,30.11,West,270,0.2,0.2,86,0.00,,,0.00,WUHU216HW,2013-02-25 13:57:00,
2013-02-25 09:03:00,33.1,29.9,30.11,West,270,0.9,1.1,88,0.00,,,0.00,WUHU216HW,2013-02-25 14:03:00,
2013-02-25 09:08:00,33.1,30.5,30.11,West,270,0.4,1.1,90,0.00,,,0.00,WUHU216HW,2013-02-25 14:08:00,
2013-02-25 09:14:00,33.5,31.6,30.12,WSW,248,1.1,1.1,93,0.00,,,0.00,WUHU216HW,2013-02-25 14:14:00,
2013-02-25 09:19:00,33.3,30.3,30.12,WSW,248,1.1,1.3,89,0.00,,,0.00,WUHU216HW,2013-02-25 14:19:00,
2013-02-25 09:24:00,32.9,29.2,30.12,WSW,248,1.3,1.3,86,0.00,,,0.00,WUHU216HW,2013-02-25 14:24:00,
2013-02-25 09:29:00,32.8,29.0,30.13,WSW,248,1.1,1.3,86,0.00,,,0.00,WUHU216HW,2013-02-25 14:29:00,
2013-02-25 09:34:00,32.8,29.0,30.13,WSW,248,0.7,1.3,86,0.00,,,0.00,WUHU216HW,2013-02-25 14:34:00,
2013-02-25 09:39:00,33.1,29.3,30.13,WSW,248,1.1,1.1,86,0.00,,,0.00,WUHU216HW,2013-02-25 14:39:00,
2013-02-25 09:44:00,33.5,29.7,30.13,WSW,248,0.7,1.1,86,0.00,,,0.00,WUHU216HW,2013-02-25 14:44:00,
2013-02-25 09:49:00,33.7,29.8,30.13,WSW,248,1.3,1.6,86,0.00,,,0.00,WUHU216HW,2013-02-25 14:49:00,
2013-02-25 09:54:00,33.5,29.3,30.13,WSW,248,1.3,1.6,85,0.00,,,0.00,WUHU216HW,2013-02-25 14:54:00,
2013-02-25 09:59:00,33.5,29.3,30.13,WSW,248,1.1,1.6,85,0.00,,,0.00,WUHU216HW,2013-02-25 14:59:00,
2013-02-25 10:04:00,33.7,29.5,30.13,WSW,248,0.7,1.3,85,0.00,,,0.00,WUHU216HW,2013-02-25 15:04:00,
2013-02-25 10:09:00,33.8,29.7,30.13,WSW,248,0.0,0.7,85,0.00,,,0.00,WUHU216HW,2013-02-25 15:09:00,
2013-02-25 10:14:00,34.2,30.1,30.13,WSW,248,0.0,0.7,85,0.00,,,0.00,WUHU216HW,2013-02-25 15:14:00,
2013-02-25 10:19:00,34.7,30.9,30.13,SW,225,0.0,0.0,86,0.00,,,0.00,WUHU216HW,2013-02-25 15:19:00,
2013-02-25 10:24:00,35.6,35.4,30.13,SSE,158,0.0,0.0,99,0.00,,,0.00,WUHU216HW,2013-02-25 15:24:00,
2013-02-25 10:29:00,35.6,32.0,30.13,NE,45,0.0,0.2,87,0.00,,,0.00,WUHU216HW,2013-02-25 15:29:00,
2013-02-25 10:34:00,35.8,31.7,30.13,NNE,23,0.0,0.2,85,0.00,,,0.00,WUHU216HW,2013-02-25 15:34:00,
2013-02-25 10:39:00,35.6,31.2,30.13,North,0,0.0,0.2,84,0.00,,,0.00,WUHU216HW,2013-02-25 15:39:00,
2013-02-25 10:44:00,35.8,31.2,30.13,WNW,293,0.9,1.1,83,0.00,,,0.00,WUHU216HW,2013-02-25 15:44:00,
2013-02-25 10:49:00,35.8,31.2,30.13,WNW,293,0.4,1.1,83,0.00,,,0.00,WUHU216HW,2013-02-25 15:49:00,
2013-02-25 10:54:00,36.0,31.3,30.14,West,270,0.9,0.9,83,0.00,,,0.00,WUHU216HW,2013-02-25 15:54:00,
2013-02-25 10:59:00,36.4,31.3,30.14,West,270,0.4,0.9,82,0.00,,,0.00,WUHU216HW,2013-02-25 15:59:00,
2013-02-25 11:04:00,36.4,31.3,30.14,West,270,0.4,0.7,82,0.00,,,0.00,WUHU216HW,2013-02-25 16:04:00,
2013-02-25 11:09:00,36.4,31.3,30.14,West,270,0.4,0.7,82,0.00,,,0.00,WUHU216HW,2013-02-25 16:09:00,
2013-02-25 11:14:00,36.2,30.9,30.14,West,270,0.9,1.1,81,0.00,,,0.00,WUHU216HW,2013-02-25 16:14:00,
2013-02-25 11:19:00,35.8,30.5,30.14,West,270,0.4,1.1,81,0.00,,,0.00,WUHU216HW,2013-02-25 16:19:00,
2013-02-25 11:24:00,35.8,30.5,30.14,West,270,0.7,0.9,81,0.00,,,0.00,WUHU216HW,2013-02-25 16:24:00,
2013-02-25 11:29:00,36.2,30.9,30.14,West,270,0.4,0.9,81,0.00,,,0.00,WUHU216HW,2013-02-25 16:29:00,
2013-02-25 11:34:00,36.4,31.3,30.15,West,270,0.0,0.7,82,0.00,,,0.00,WUHU216HW,2013-02-25 16:34:00,
2013-02-25 11:39:00,36.5,32.4,30.15,West,270,0.9,0.9,85,0.00,,,0.00,WUHU216HW,2013-02-25 16:39:00,
2013-02-25 11:44:00,36.4,31.7,30.15,West,270,0.4,0.9,83,0.00,,,0.00,WUHU216HW,2013-02-25 16:44:00,
2013-02-25 11:49:00,36.5,31.2,30.15,West,270,0.0,0.9,81,0.00,,,0.00,WUHU216HW,2013-02-25 16:49:00,
2013-02-25 11:54:00,36.7,31.1,30.15,West,270,0.0,0.0,80,0.00,,,0.00,WUHU216HW,2013-02-25 16:54:00,
2013-02-25 11:59:00,36.9,31.3,30.15,West,270,0.0,0.0,80,0.00,,,0.00,WUHU216HW,2013-02-25 16:59:00,
2013-02-25 12:04:00,37.1,31.1,30.15,West,270,1.1,1.1,79,0.00,,,0.00,WUHU216HW,2013-02-25 17:04:00,
2013-02-25 12:09:00,37.1,30.9,30.14,West,270,1.1,1.1,78,0.00,,,0.00,WUHU216HW,2013-02-25 17:09:00,
2013-02-25 12:14:00,37.1,30.5,30.14,WSW,248,0.7,1.1,77,0.00,,,0.00,WUHU216HW,2013-02-25 17:14:00,
2013-02-25 12:19:00,37.3,31.1,30.14,West,270,0.9,1.1,78,0.00,,,0.00,WUHU216HW,2013-02-25 17:19:00,
2013-02-25 12:24:00,37.4,30.9,30.14,West,270,0.7,1.1,77,0.00,,,0.00,WUHU216HW,2013-02-25 17:24:00,
2013-02-25 12:29:00,37.4,30.6,30.14,WNW,293,0.9,1.3,76,0.00,,,0.00,WUHU216HW,2013-02-25 17:29:00,
2013-02-25 12:34:00,37.4,30.6,30.14,WNW,293,0.9,1.3,76,0.00,,,0.00,WUHU216HW,2013-02-25 17:34:00,
2013-02-25 12:39:00,37.8,31.2,30.14,West,270,1.1,1.1,77,0.00,,,0.00,WUHU216HW,2013-02-25 17:39:00,
2013-02-25 12:44:00,38.3,31.4,30.14,West,270,1.1,1.8,76,0.00,,,0.00,WUHU216HW,2013-02-25 17:44:00,
2013-02-25 12:49:00,38.2,31.2,30.14,NW,315,1.8,1.8,76,0.00,,,0.00,WUHU216HW,2013-02-25 17:49:00,
2013-02-25 12:54:00,38.0,31.1,30.14,WNW,293,1.6,1.8,76,0.00,,,0.00,WUHU216HW,2013-02-25 17:54:00,
2013-02-25 12:59:00,37.8,30.9,30.14,West,270,1.8,1.8,76,0.00,,,0.00,WUHU216HW,2013-02-25 17:59:00,
2013-02-25 13:04:00,37.8,31.6,30.15,West,270,2.0,2.0,78,0.00,,,0.00,WUHU216HW,2013-02-25 18:04:00,
2013-02-25 13:09:00,37.4,30.9,30.15,West,270,1.8,2.0,77,0.00,,,0.00,WUHU216HW,2013-02-25 18:09:00,
2013-02-25 13:14:00,37.1,30.5,30.15,West,270,2.5,2.7,77,0.00,,,0.00,WUHU216HW,2013-02-25 18:14:00,
2013-02-25 13:19:00,36.7,30.2,30.15,West,270,1.8,2.7,77,0.00,,,0.00,WUHU216HW,2013-02-25 18:19:00,
2013-02-25 13:24:00,36.2,29.4,30.15,West,270,1.8,2.2,76,0.00,,,0.00,WUHU216HW,2013-02-25 18:24:00,
2013-02-25 13:29:00,36.4,29.5,30.15,WNW,293,1.6,2.0,76,0.00,,,0.00,WUHU216HW,2013-02-25 18:29:00,
2013-02-25 13:34:00,36.2,29.4,30.15,WNW,293,1.8,2.0,76,0.00,,,0.00,WUHU216HW,2013-02-25 18:34:00,
2013-02-25 13:39:00,36.0,29.2,30.16,West,270,1.3,2.2,76,0.00,,,0.00,WUHU216HW,2013-02-25 18:39:00,
2013-02-25 13:44:00,35.6,28.8,30.16,West,270,0.7,2.2,76,0.00,,,0.00,WUHU216HW,2013-02-25 18:44:00,
2013-02-25 13:49:00,35.8,29.3,30.16,West,270,1.1,1.3,77,0.00,,,0.00,WUHU216HW,2013-02-25 18:49:00,
2013-02-25 13:54:00,36.0,29.4,30.16,West,270,0.4,1.1,77,0.00,,,0.00,WUHU216HW,2013-02-25 18:54:00,
2013-02-25 13:59:00,36.4,29.8,30.16,West,270,0.0,0.4,77,0.00,,,0.00,WUHU216HW,2013-02-25 18:59:00,
2013-02-25 14:04:00,36.7,30.8,30.16,West,270,0.0,0.4,79,0.00,,,0.00,WUHU216HW,2013-02-25 19:04:00,
2013-02-25 14:09:00,37.1,30.9,30.16,West,270,0.0,0.0,78,0.00,,,0.00,WUHU216HW,2013-02-25 19:09:00,
2013-02-25 14:14:00,37.3,35.6,30.17,West,270,0.0,0.2,94,0.00,,,0.00,WUHU216HW,2013-02-25 19:14:00,
2013-02-25 14:19:00,37.1,30.9,30.16,WNW,293,1.1,1.1,78,0.00,,,0.00,WUHU216HW,2013-02-25 19:19:00,
2013-02-25 14:24:00,36.7,30.2,30.16,WNW,293,0.7,1.1,77,0.00,,,0.00,WUHU216HW,2013-02-25 19:24:00,
2013-02-25 14:30:00,36.9,30.3,30.17,West,270,0.4,1.1,77,0.00,,,0.00,WUHU216HW,2013-02-25 19:30:00,
2013-02-25 14:35:00,37.1,30.3,30.17,West,270,0.4,1.1,76,0.00,,,0.00,WUHU216HW,2013-02-25 19:35:00,
2013-02-25 14:40:00,37.1,30.5,30.17,West,270,0.4,0.9,77,0.00,,,0.00,WUHU216HW,2013-02-25 19:40:00,
2013-02-25 14:45:00,37.4,30.9,30.17,West,270,0.2,0.7,77,0.00,,,0.00,WUHU216HW,2013-02-25 19:45:00,
2013-02-25 14:50:00,37.4,30.9,30.18,West,270,0.4,0.9,77,0.00,,,0.00,WUHU216HW,2013-02-25 19:50:00,
2013-02-25 14:55:00,37.3,30.4,30.18,NW,315,1.1,1.1,76,0.00,,,0.00,WUHU216HW,2013-02-25 19:55:00,
2013-02-25 15:00:00,37.3,30.4,30.17,NW,315,1.1,1.1,76,0.00,,,0.00,WUHU216HW,2013-02-25 20:00:00,
2013-02-25 15:05:00,37.1,30.3,30.17,WNW,293,0.9,1.1,76,0.00,,,0.00,WUHU216HW,2013-02-25 20:05:00,
2013-02-25 15:09:00,36.9,30.1,30.17,WNW,293,0.4,1.1,76,0.00,,,0.00,WUHU216HW,2013-02-25 20:09:00,
2013-02-25 15:15:00,36.9,30.1,30.17,WNW,293,0.7,1.1,76,0.00,,,0.00,WUHU216HW,2013-02-25 20:15:00,
2013-02-25 15:19:00,36.7,29.9,30.17,WNW,293,1.1,1.1,76,0.00,,,0.00,WUHU216HW,2013-02-25 20:19:00,
2013-02-25 15:24:00,36.9,30.3,30.18,West,270,0.4,1.1,77,0.00,,,0.00,WUHU216HW,2013-02-25 20:24:00,
2013-02-25 15:29:00,36.7,30.5,30.18,West,270,0.4,0.9,78,0.00,,,0.00,WUHU216HW,2013-02-25 20:29:00,
2013-02-25 15:34:00,36.7,33.1,30.18,West,270,0.7,1.1,87,0.00,,,0.00,WUHU216HW,2013-02-25 20:34:00,
2013-02-25 15:39:00,36.2,29.4,30.18,WSW,248,1.1,1.1,76,0.00,,,0.00,WUHU216HW,2013-02-25 20:39:00,
2013-02-25 15:44:00,35.6,29.1,30.18,WSW,248,1.3,1.3,77,0.00,,,0.00,WUHU216HW,2013-02-25 20:44:00,
2013-02-25 15:49:00,35.3,28.7,30.18,WSW,248,1.8,1.8,77,0.00,,,0.00,WUHU216HW,2013-02-25 20:49:00,
2013-02-25 15:54:00,34.9,28.4,30.18,WSW,248,0.9,1.8,77,0.00,,,0.00,WUHU216HW,2013-02-25 20:54:00,
2013-02-25 15:59:00,34.9,28.7,30.18,WSW,248,0.4,1.8,78,0.00,,,0.00,WUHU216HW,2013-02-25 20:59:00,
2013-02-25 16:04:00,35.1,28.9,30.18,WSW,248,0.0,0.7,78,0.00,,,0.00,WUHU216HW,2013-02-25 21:04:00,
2013-02-25 16:09:00,35.1,28.9,30.19,WSW,248,0.4,1.1,78,0.00,,,0.00,WUHU216HW,2013-02-25 21:09:00,
2013-02-25 16:15:00,35.1,28.9,30.19,WSW,248,0.9,1.1,78,0.00,,,0.00,WUHU216HW,2013-02-25 21:15:00,
2013-02-25 16:20:00,34.9,28.7,30.19,WSW,248,0.4,1.1,78,0.00,,,0.00,WUHU216HW,2013-02-25 21:20:00,
2013-02-25 16:25:00,34.9,28.7,30.19,WSW,248,0.0,0.9,78,0.00,,,0.00,WUHU216HW,2013-02-25 21:25:00,
2013-02-25 16:30:00,34.9,28.7,30.19,West,270,0.0,0.4,78,0.00,,,0.00,WUHU216HW,2013-02-25 21:30:00,
2013-02-25 16:35:00,34.9,28.7,30.19,NW,315,0.9,1.1,78,0.00,,,0.00,WUHU216HW,2013-02-25 21:35:00,
2013-02-25 16:40:00,34.9,29.6,30.18,NW,315,0.9,1.1,81,0.00,,,0.00,WUHU216HW,2013-02-25 21:40:00,
2013-02-25 16:45:00,34.9,30.5,30.19,NW,315,0.7,0.9,84,0.00,,,0.00,WUHU216HW,2013-02-25 21:45:00,
2013-02-25 16:50:00,34.7,30.3,30.18,NW,315,0.7,0.9,84,0.00,,,0.00,WUHU216HW,2013-02-25 21:50:00,
2013-02-25 16:55:00,34.6,29.3,30.19,NW,315,0.9,1.1,81,0.00,,,0.00,WUHU216HW,2013-02-25 21:55:00,
2013-02-25 17:00:00,34.4,28.8,30.19,NW,315,1.1,1.1,80,0.00,,,0.00,WUHU216HW,2013-02-25 22:00:00,
2013-02-25 17:05:00,34.2,28.9,30.19,NW,315,1.1,1.1,81,0.00,,,0.00,WUHU216HW,2013-02-25 22:05:00,
2013-02-25 17:10:00,34.0,28.7,30.19,WNW,293,0.7,1.3,81,0.00,,,0.00,WUHU216HW,2013-02-25 22:10:00,
2013-02-25 17:15:00,33.8,28.8,30.19,WNW,293,1.1,1.3,82,0.00,,,0.00,WUHU216HW,2013-02-25 22:15:00,
2013-02-25 17:20:00,33.8,28.5,30.19,NW,315,0.7,1.1,81,0.00,,,0.00,WUHU216HW,2013-02-25 22:20:00,
2013-02-25 17:25:00,33.8,28.5,30.19,NW,315,1.3,1.3,81,0.00,,,0.00,WUHU216HW,2013-02-25 22:25:00,
2013-02-25 17:30:00,33.7,28.4,30.19,NW,315,2.2,2.2,81,0.00,,,0.00,WUHU216HW,2013-02-25 22:30:00,
2013-02-25 17:35:00,33.5,28.5,30.19,NW,315,0.4,2.2,82,0.00,,,0.00,WUHU216HW,2013-02-25 22:35:00,
2013-02-25 17:40:00,33.5,28.5,30.20,NW,315,1.1,1.3,82,0.00,,,0.00,WUHU216HW,2013-02-25 22:40:00,
2013-02-25 17:45:00,33.5,28.8,30.20,NW,315,0.4,1.1,83,0.00,,,0.00,WUHU216HW,2013-02-25 22:45:00,
2013-02-25 17:50:00,33.5,28.8,30.20,NW,315,0.2,1.1,83,0.00,,,0.00,WUHU216HW,2013-02-25 22:50:00,
2013-02-25 17:55:00,33.5,30.2,30.20,NW,315,0.2,0.4,88,0.00,,,0.00,WUHU216HW,2013-02-25 22:55:00,
2013-02-25 17:59:00,33.5,32.4,30.21,WNW,293,0.4,0.9,96,0.00,,,0.00,WUHU216HW,2013-02-25 22:59:00,
2013-02-25 18:04:00,33.5,31.9,30.21,WNW,293,0.7,0.9,94,0.00,,,0.00,WUHU216HW,2013-02-25 23:04:00,
2013-02-25 18:09:00,33.5,30.2,30.21,NW,315,0.4,1.1,88,0.00,,,0.00,WUHU216HW,2013-02-25 23:09:00,
2013-02-25 18:15:00,33.3,29.3,30.21,NW,315,0.7,1.1,85,0.00,,,0.00,WUHU216HW,2013-02-25 23:15:00,
2013-02-25 18:19:00,33.3,29.3,30.21,NW,315,0.4,0.9,85,0.00,,,0.00,WUHU216HW,2013-02-25 23:19:00,
2013-02-25 18:25:00,33.1,29.1,30.21,NW,315,0.0,1.1,85,0.00,,,0.00,WUHU216HW,2013-02-25 23:25:00,
2013-02-25 18:30:00,33.1,29.1,30.22,NW,315,0.0,1.1,85,0.00,,,0.00,WUHU216HW,2013-02-25 23:30:00,
2013-02-25 18:35:00,33.1,29.1,30.22,NW,315,0.0,0.0,85,0.00,,,0.00,WUHU216HW,2013-02-25 23:35:00,
2013-02-25 18:40:00,33.1,29.1,30.22,NW,315,0.0,0.0,85,0.00,,,0.00,WUHU216HW,2013-02-25 23:40:00,
2013-02-25 18:45:00,33.1,29.1,30.22,NW,315,0.0,0.0,85,0.00,,,0.00,WUHU216HW,2013-02-25 23:45:00,
2013-02-25 18:50:00,33.3,29.3,30.22,NW,315,0.0,0.0,85,0.00,,,0.00,WUHU216HW,2013-02-25 23:50:00,
2013-02-25 18:54:00,33.3,29.3,30.22,NW,315,0.0,0.0,85,0.00,,,0.00,WUHU216HW,2013-02-25 23:54:00,
2013-02-25 19:00:00,33.3,29.3,30.23,NW,315,0.0,0.0,85,0.00,,,0.00,WUHU216HW,2013-02-26 00:00:00,
2013-02-25 19:05:00,33.3,29.3,30.22,NW,315,0.0,0.0,85,0.00,,,0.00,WUHU216HW,2013-02-26 00:05:00,
2013-02-25 19:10:00,33.3,31.7,30.22,North,0,0.4,0.4,94,0.00,,,0.00,WUHU216HW,2013-02-26 00:10:00,
2013-02-25 19:15:00,33.3,32.0,30.22,ESE,113,0.9,0.9,95,0.00,,,0.00,WUHU216HW,2013-02-26 00:15:00,
2013-02-25 19:20:00,33.5,33.2,30.22,ESE,113,0.4,0.9,99,0.00,,,0.00,WUHU216HW,2013-02-26 00:20:00,
2013-02-25 19:25:00,33.3,31.1,30.22,ESE,113,0.9,0.9,92,0.00,,,0.00,WUHU216HW,2013-02-26 00:25:00,
2013-02-25 19:30:00,33.1,30.3,30.23,ESE,113,1.1,1.1,89,0.00,,,0.00,WUHU216HW,2013-02-26 00:30:00,
2013-02-25 19:35:00,32.9,29.8,30.23,ESE,113,0.7,1.1,88,0.00,,,0.00,WUHU216HW,2013-02-26 00:35:00,
2013-02-25 19:40:00,32.8,29.6,30.23,ESE,113,0.9,1.1,88,0.00,,,0.00,WUHU216HW,2013-02-26 00:40:00,
2013-02-25 19:44:00,32.8,29.4,30.23,East,90,1.6,1.6,87,0.00,,,0.00,WUHU216HW,2013-02-26 00:44:00,
2013-02-25 19:45:00,32.8,29.4,30.23,East,90,1.6,1.8,87,0.00,,,0.00,WUHU216HW,2013-02-26 00:45:00,
2013-02-25 19:50:00,32.8,29.4,30.23,East,90,1.6,1.8,87,0.00,,,0.00,WUHU216HW,2013-02-26 00:50:00,
2013-02-25 20:00:00,32.6,29.4,30.23,East,90,0.7,0.7,88,0.00,,,0.00,WUHU216HW,2013-02-26 01:00:00,
2013-02-25 20:05:00,32.6,29.4,30.23,East,90,0.0,0.7,88,0.00,,,0.00,WUHU216HW,2013-02-26 01:05:00,
2013-02-25 20:10:00,32.6,29.4,30.23,East,90,0.0,0.7,88,0.00,,,0.00,WUHU216HW,2013-02-26 01:10:00,
2013-02-25 20:15:00,32.6,29.4,30.23,ENE,68,1.1,1.1,88,0.00,,,0.00,WUHU216HW,2013-02-26 01:15:00,
2013-02-25 20:20:00,32.6,29.4,30.23,East,90,0.4,1.1,88,0.00,,,0.00,WUHU216HW,2013-02-26 01:20:00,
2013-02-25 20:25:00,32.6,30.8,30.23,East,90,0.0,1.1,93,0.00,,,0.00,WUHU216HW,2013-02-26 01:25:00,
2013-02-25 20:30:00,32.8,32.5,30.23,ESE,113,1.1,1.1,99,0.00,,,0.00,WUHU216HW,2013-02-26 01:30:00,
2013-02-25 20:35:00,32.6,32.3,30.23,East,90,1.1,1.3,99,0.00,,,0.00,WUHU216HW,2013-02-26 01:35:00,
2013-02-25 20:40:00,32.4,31.9,30.23,East,90,0.7,1.3,98,0.00,,,0.00,WUHU216HW,2013-02-26 01:40:00,
2013-02-25 20:45:00,32.2,30.4,30.24,East,90,0.0,1.1,93,0.00,,,0.00,WUHU216HW,2013-02-26 01:45:00,
2013-02-25 20:50:00,32.0,29.8,30.24,SE,135,0.7,0.9,91,0.00,,,0.00,WUHU216HW,2013-02-26 01:50:00,
2013-02-25 20:55:00,32.0,29.5,30.24,SE,135,0.0,0.9,90,0.00,,,0.00,WUHU216HW,2013-02-26 01:55:00,
2013-02-25 21:00:00,31.9,29.3,30.24,SE,135,0.0,0.4,90,0.00,,,0.00,WUHU216HW,2013-02-26 02:00:00,
2013-02-25 21:05:00,31.7,29.2,30.24,ESE,113,0.4,0.9,90,0.00,,,0.00,WUHU216HW,2013-02-26 02:05:00,
2013-02-25 21:10:00,31.7,29.2,30.23,ESE,113,1.3,1.8,90,0.00,,,0.00,WUHU216HW,2013-02-26 02:10:00,
2013-02-25 21:15:00,31.5,29.3,30.23,East,90,0.9,1.8,91,0.00,,,0.00,WUHU216HW,2013-02-26 02:15:00,
2013-02-25 21:20:00,31.3,29.1,30.24,ESE,113,0.7,1.1,91,0.00,,,0.00,WUHU216HW,2013-02-26 02:20:00,
2013-02-25 21:25:00,31.3,29.1,30.23,ESE,113,0.9,0.9,91,0.00,,,0.00,WUHU216HW,2013-02-26 02:25:00,
2013-02-25 21:30:00,31.3,29.1,30.23,East,90,1.1,1.1,91,0.00,,,0.00,WUHU216HW,2013-02-26 02:30:00,
2013-02-25 21:35:00,31.3,29.1,30.24,East,90,0.4,1.1,91,0.00,,,0.00,WUHU216HW,2013-02-26 02:35:00,
2013-02-25 21:40:00,31.3,31.1,30.24,ESE,113,0.7,1.1,99,0.00,,,0.00,WUHU216HW,2013-02-26 02:40:00,
2013-02-25 21:45:00,31.5,31.2,30.24,East,90,1.1,1.1,99,0.00,,,0.00,WUHU216HW,2013-02-26 02:45:00,
2013-02-25 21:50:00,31.5,31.2,30.24,East,90,1.1,1.1,99,0.00,,,0.00,WUHU216HW,2013-02-26 02:50:00,
2013-02-25 21:55:00,31.7,31.4,30.24,East,90,0.7,1.1,99,0.00,,,0.00,WUHU216HW,2013-02-26 02:55:00,
2013-02-25 22:00:00,31.5,31.2,30.24,East,90,0.9,1.1,99,0.00,,,0.00,WUHU216HW,2013-02-26 03:00:00,
2013-02-25 22:05:00,31.5,30.5,30.24,East,90,0.4,1.1,96,0.00,,,0.00,WUHU216HW,2013-02-26 03:05:00,
2013-02-25 22:10:00,31.5,30.2,30.24,East,90,0.0,0.7,95,0.00,,,0.00,WUHU216HW,2013-02-26 03:10:00,
2013-02-25 22:15:00,31.7,30.4,30.24,East,90,0.0,0.4,95,0.00,,,0.00,WUHU216HW,2013-02-26 03:15:00,
2013-02-25 22:20:00,31.5,30.2,30.24,West,270,0.4,0.4,95,0.00,,,0.00,WUHU216HW,2013-02-26 03:20:00,
2013-02-25 22:25:00,31.3,30.1,30.24,WSW,248,1.1,1.1,95,0.00,,,0.00,WUHU216HW,2013-02-26 03:25:00,
2013-02-25 22:30:00,31.1,29.9,30.25,WSW,248,0.0,1.1,95,0.00,,,0.00,WUHU216HW,2013-02-26 03:30:00,
2013-02-25 22:35:00,31.0,30.0,30.24,WSW,248,0.0,0.9,96,0.00,,,0.00,WUHU216HW,2013-02-26 03:35:00,
2013-02-25 22:40:00,31.0,29.7,30.24,WSW,248,0.0,0.0,95,0.00,,,0.00,WUHU216HW,2013-02-26 03:40:00,
2013-02-25 22:45:00,31.0,29.7,30.24,West,270,0.0,0.4,95,0.00,,,0.00,WUHU216HW,2013-02-26 03:45:00,
2013-02-25 22:50:00,30.8,29.8,30.24,WNW,293,0.2,0.9,96,0.00,,,0.00,WUHU216HW,2013-02-26 03:50:00,
2013-02-25 22:54:00,31.0,30.7,30.24,WNW,293,0.0,0.0,99,0.00,,,0.00,WUHU216HW,2013-02-26 03:54:00,
2013-02-25 22:55:00,31.0,30.7,30.24,WNW,293,0.0,0.9,99,0.00,,,0.00,WUHU216HW,2013-02-26 03:55:00,
2013-02-25 23:00:00,31.0,30.7,30.24,WNW,293,0.0,0.9,99,0.00,,,0.00,WUHU216HW,2013-02-26 04:00:00,
2013-02-25 23:40:00,31.0,30.7,30.25,SSW,203,0.0,0.0,99,0.00,,,0.00,WUHU216HW,2013-02-26 04:40:00,
2013-02-25 23:45:00,31.1,30.9,30.25,SSW,203,0.0,0.0,99,0.00,,,0.00,WUHU216HW,2013-02-26 04:45:00,
2013-02-25 23:50:00,31.1,30.9,30.25,SW,225,0.0,0.0,99,0.00,,,0.00,WUHU216HW,2013-02-26 04:50:00,
2013-02-25 23:55:00,31.3,31.1,30.25,SW,225,0.0,0.0,99,0.00,,,0.00,WUHU216HW,2013-02-26 04:55:00,